Theta_e
310 310 310 310 310 309 309 309 310 310 311 312 312 312 312 312 312 312 313 313 314 313 313 311 313 313 310 301 299 306 317 316 318 319 308 309 311 309 305 308 310 309 311 313 314 315 314
308 309 309 309 309 308 308 308 309 310 310 311 311 312 312 312 311 311 311 312 313 313 313 313 311 313 304 292 309 311 311 310 306 314 309 307 310 312 308 309 308 310 311 311 313 313 314
308 307 308 308 307 307 307 307 308 309 309 310 311 311 311 311 311 312 312 312 312 313 313 312 312 308 300 297 309 311 310 309 308 305 306 309 309 310 310 306 312 311 307 310 311 311 311
308 307 307 307 307 307 307 308 308 308 309 310 311 311 311 311 311 311 312 312 312 312 313 313 313 306 296 308 311 309 311 309 311 310 307 307 312 307 305 307 303 301 302 297 304 306 307
308 307 307 307 307 306 307 308 308 309 310 310 310 311 311 311 311 311 311 312 311 311 312 312 305 302 293 308 303 309 310 305 307 308 307 305 309 307 304 300 298 299 295 296 299 306 305
308 308 308 308 308 308 308 308 308 308 309 310 311 311 312 311 311 311 311 310 309 310 309 308 305 296 298 296 304 306 310 309 304 301 300 300 302 299 300 298 291 294 294 297 297 302 303
308 308 309 308 308 308 308 308 307 308 309 310 310 311 311 311 311 310 308 303 300 299 300 296 296 295 297 302 305 301 307 305 304 299 294 298 295 293 296 299 300 299 298 297 301 303 300
307 307 308 308 308 308 308 308 308 308 309 310 310 310 310 310 310 310 304 298 298 298 291 298 298 298 301 302 295 298 304 298 297 293 297 294 292 298 300 299 297 297 296 296 299 300 300
306 307 308 308 308 308 308 309 309 310 310 310 311 311 310 310 310 303 300 299 305 304 291 294 298 297 298 300 295 295 301 298 294 293 294 293 295 298 297 296 295 296 295 295 295 299 301
307 308 308 308 309 309 308 309 308 309 310 310 310 310 310 310 302 301 298 303 305 304 286 287 292 296 298 298 292 301 301 298 295 292 294 294 299 296 295 295 297 292 299 298 296 295 291
307 308 308 309 309 309 308 308 309 309 310 310 310 310 310 309 301 297 300 305 305 300 273 288 293 303 299 294 296 297 302 298 293 293 295 292 294 295 293 295 299 295 300 298 298 296 296
307 307 307 308 308 308 308 309 309 309 310 310 310 309 308 304 303 303 305 304 301 284 273 285 292 291 290 293 295 298 296 299 299 295 295 295 299 297 297 299 300 301 299 299 299 296 289
307 307 306 307 309 309 308 308 309 309 309 309 309 307 305 304 297 304 305 299 283 276 287 284 286 289 288 289 291 293 292 290 288 288 288 292 293 297 298 296 300 300 297 288 286 287 286
308 308 307 308 309 309 308 309 309 309 309 309 308 306 304 305 306 306 301 289 275 281 283 289 288 288 284 289 289 290 289 289 292 293 292 287 285 293 298 297 296 297 296 290 284 286 289
308 309 309 309 309 308 308 308 308 308 308 307 306 303 302 305 305 304 293 279 279 282 286 286 286 283 284 287 287 287 287 290 292 293 289 289 289 296 298 299 299 296 293 299 292 294 290
307 307 308 309 309 309 308 308 309 309 308 307 299 298 300 306 306 300 289 281 284 289 289 288 281 284 281 283 285 285 284 291 289 294 295 292 289 295 296 299 299 297 300 291 292 284 283
306 306 307 308 308 308 308 308 308 308 307 305 298 293 302 303 304 291 283 284 286 291 291 286 284 283 284 283 286 284 284 288 290 291 294 294 292 293 295 294 293 294 294 295 296 293 287
305 305 305 305 306 307 307 308 308 308 306 302 297 288 300 304 290 288 284 286 290 289 292 289 289 287 285 286 284 284 284 286 292 291 288 295 293 289 292 298 300 298 296 296 290 289 292
303 304 304 305 306 306 306 307 307 308 307 300 291 289 300 301 283 283 286 286 288 288 288 288 287 288 289 286 282 286 287 291 292 291 290 294 291 287 289 294 297 295 297 298 298 298 291
304 303 304 305 305 306 305 306 307 307 307 300 292 285 292 296 292 285 283 284 284 291 289 290 288 290 288 286 289 285 287 290 292 292 297 295 290 290 288 291 295 292 294 297 297 292 292
304 304 304 304 305 305 305 305 306 306 307 299 293 288 290 284 286 286 285 284 284 284 289 290 287 287 285 283 285 286 288 290 292 293 293 292 286 289 292 293 296 294 294 294 294 295 291
303 304 304 304 304 305 305 306 306 306 305 298 291 289 292 289 289 286 286 284 284 286 286 285 286 287 287 283 284 283 287 288 287 291 291 293 287 289 289 293 295 293 295 295 295 295 295
303 303 304 304 304 305 305 306 307 307 305 297 298 298 292 288 286 285 285 285 285 288 289 290 289 287 286 288 291 292 292 292 292 290 290 290 289 288 287 291 293 290 295 296 296 297 297
303 303 303 304 304 304 305 306 307 308 306 301 300 296 289 284 286 286 287 289 288 288 286 289 291 288 291 296 295 294 294 292 292 293 294 289 289 290 288 292 285 295 300 300 297 297 298
303 303 303 304 304 304 305 307 307 308 307 303 303 296 291 285 287 287 288 288 289 291 289 289 291 293 296 293 289 286 287 288 290 292 293 294 289 288 287 290 295 294 295 294 297 294 298
302 302 303 303 304 305 305 306 308 308 308 304 303 302 296 288 288 290 288 289 287 287 288 290 295 296 296 291 288 281 279 283 283 288 292 292 292 288 289 287 286 292 297 300 302 293 299
303 303 303 303 304 305 305 306 307 308 308 306 305 304 297 290 293 292 287 288 291 290 288 291 292 292 294 288 283 283 283 287 281 281 284 287 288 285 287 287 289 296 299 302 294 292 300
303 303 303 304 304 305 305 306 307 308 309 306 303 302 299 293 293 295 295 292 292 292 288 292 291 292 291 286 285 285 284 286 285 287 287 287 287 286 289 287 285 298 297 292 296 301 301
302 302 303 303 304 304 305 306 307 308 309 307 301 302 303 295 294 300 299 300 298 297 293 293 291 291 294 288 289 288 286 286 285 283 290 286 289 287 288 288 296 300 298 301 301 300 300
Wind_Speed
16 16 16 16 17 17 18 17 16 16 17 17 18 17 17 17 17 17 17 17 16 15 14 13 13 12 6 5 10 2 14 13 3 8 14 17 19 18 16 15 18 23 21 20 22 21 20
16 17 17 18 18 18 18 18 18 17 18 18 17 18 18 18 19 19 18 18 17 17 16 14 12 12 5 15 7 9 10 10 2 6 9 14 9 13 11 11 21 10 23 23 18 16 20
16 16 16 16 16 16 18 18 18 19 19 18 17 17 18 18 19 19 19 18 17 17 17 15 11 8 13 23 10 14 19 8 3 4 10 14 18 8 5 9 15 14 16 13 14 14 14
16 17 17 17 18 19 19 19 19 20 19 19 19 18 18 18 18 19 21 19 20 21 19 16 10 8 11 9 11 17 16 13 13 17 11 13 14 18 9 4 1 11 11 18 12 19 12
15 15 15 16 16 18 18 19 20 21 21 21 20 19 19 19 18 19 20 21 25 21 12 6 5 6 12 6 7 13 15 16 12 11 12 7 12 11 8 15 10 12 14 15 13 10 5
17 17 17 17 18 18 17 17 19 20 20 21 20 20 20 21 19 18 18 22 18 3 3 5 4 5 6 3 3 13 10 16 12 10 8 10 9 12 15 18 22 14 14 14 16 10 17
17 17 18 18 18 18 18 18 19 19 20 21 22 20 18 18 18 17 15 6 1 3 3 7 7 9 19 11 13 8 3 4 11 18 17 20 13 28 30 21 17 18 20 25 21 14 15
18 18 18 18 19 19 19 19 20 20 20 21 22 21 19 17 18 14 3 3 5 2 12 15 23 24 26 16 13 16 7 9 11 21 22 14 33 25 19 21 23 22 23 21 13 12 10
18 18 18 18 19 19 20 21 20 21 20 20 20 19 18 17 16 2 4 4 5 8 6 16 11 10 9 8 13 25 7 9 13 20 31 30 33 18 22 22 24 25 25 23 19 15 14
18 18 18 18 18 18 21 21 22 22 21 20 20 18 17 17 3 4 5 1 7 4 5 7 3 4 3 5 8 16 16 14 14 23 24 24 23 25 25 28 22 25 23 19 18 11 14
16 18 19 18 18 19 21 22 23 23 22 20 19 19 17 11 7 4 3 6 9 4 6 2 4 2 7 5 12 5 17 17 19 12 20 20 24 20 26 28 27 15 11 15 16 17 16
17 17 18 18 20 20 20 20 22 22 21 20 20 20 17 4 2 6 7 8 3 4 9 3 2 8 16 5 9 10 4 20 17 22 22 21 13 28 24 20 20 11 7 8 6 7 13
18 18 19 19 19 20 20 20 21 21 21 21 20 20 10 3 3 2 5 2 4 6 6 0 5 13 16 11 8 10 15 12 17 18 20 18 18 8 17 18 17 20 13 6 7 9 10
18 18 19 19 19 20 20 21 21 21 21 21 21 15 3 4 3 5 2 2 7 4 8 12 12 16 15 10 6 11 18 12 20 19 11 16 16 21 20 20 14 25 20 8 8 6 10
20 19 20 21 20 20 20 20 21 22 21 22 17 2 2 3 4 4 3 3 4 4 6 10 15 9 6 8 7 8 9 12 9 24 7 15 16 16 19 14 21 17 20 14 7 2 8
20 20 21 21 20 21 21 21 22 23 22 20 5 4 3 6 4 2 2 3 4 7 10 7 7 7 11 10 9 6 4 11 13 12 12 8 13 13 21 22 23 19 17 10 9 8 9
20 21 21 21 21 21 21 22 22 22 22 16 2 2 1 6 2 2 2 4 5 10 10 4 6 9 10 11 6 2 4 6 14 16 12 11 8 15 18 26 23 12 17 7 10 8 6
21 21 22 22 21 21 21 20 21 21 19 7 3 2 3 5 1 1 4 9 8 9 9 7 8 9 10 12 7 3 4 2 7 11 9 6 7 9 27 15 20 21 21 20 10 10 10
22 22 22 21 20 20 20 20 21 21 17 5 6 4 2 3 4 6 8 6 6 7 8 6 6 5 12 8 5 3 4 4 3 5 3 8 7 12 9 6 17 25 20 17 4 5 16
20 22 22 22 21 20 21 20 19 20 17 2 3 5 3 3 1 5 7 5 8 8 9 6 11 8 12 7 4 5 6 2 4 4 17 6 5 9 11 12 7 26 23 19 14 9 8
21 21 22 22 21 21 20 20 19 18 17 1 3 3 2 5 4 9 5 6 9 8 5 7 2 4 8 7 11 4 3 1 2 7 13 4 4 6 14 8 5 21 22 23 21 16 8
21 21 21 22 22 21 20 19 18 16 12 0 3 3 2 7 8 9 4 4 9 8 5 10 6 13 13 11 13 14 5 4 3 4 8 5 1 6 11 11 7 6 8 21 25 22 18
21 21 21 22 22 21 20 18 17 15 6 2 0 2 2 5 4 5 3 6 7 13 9 9 13 17 15 13 8 11 12 12 12 5 6 7 6 4 8 4 6 7 2 7 15 20 20
21 22 22 22 21 20 20 20 17 16 8 1 1 1 3 5 6 8 10 13 12 13 10 14 13 8 4 11 18 16 15 13 14 14 9 7 6 3 3 4 15 7 10 12 16 14 14
23 23 23 22 21 21 19 20 17 14 9 2 1 2 2 6 7 12 8 12 13 13 11 10 6 6 10 9 5 5 4 5 8 9 2 9 2 3 3 3 8 4 12 8 5 9 14
25 24 24 23 22 22 20 19 16 12 8 2 3 3 3 5 2 4 13 12 5 6 7 4 9 5 4 3 4 3 3 1 1 3 4 5 10 4 1 3 4 9 16 7 5 6 16
24 23 24 24 23 22 21 18 17 14 11 2 2 4 3 4 6 2 6 6 3 5 4 7 10 4 3 4 3 3 2 4 2 3 3 1 3 6 1 3 3 14 15 13 6 6 14
24 23 23 23 23 22 21 18 16 15 11 2 2 5 3 4 11 8 5 7 8 5 3 7 7 1 3 6 4 5 3 3 2 3 5 3 2 1 2 2 5 16 3 6 5 7 11
24 24 23 23 23 22 20 19 16 15 11 2 3 3 3 5 9 15 17 20 20 20 7 3 5 5 3 4 3 3 2 3 5 2 4 1 4 2 4 4 5 8 3 5 7 9 11
Wind_Direction
15 12 11 6 3 1 360 355 351 348 350 352 346 343 341 336 333 328 323 321 315 312 315 313 317 318 324 238 243 317 359 5 62 156 205 202 192 204 200 209 212 229 242 233 245 261 260
9 8 5 3 359 356 354 351 348 349 350 343 342 340 338 334 330 327 322 317 312 312 305 308 306 307 259 251 237 303 332 347 265 190 187 212 223 226 246 227 201 236 238 243 242 249 259
6 4 1 359 357 355 351 347 344 344 343 340 338 336 333 333 329 324 319 315 311 300 295 292 287 282 256 249 284 290 298 280 306 344 237 234 232 249 243 241 231 240 254 236 235 235 242
5 2 359 355 353 352 349 345 342 343 339 338 337 334 330 329 327 323 318 315 305 296 292 284 264 251 256 246 268 270 266 277 240 238 250 260 231 237 245 300 189 223 229 242 225 232 243
1 357 359 353 355 354 351 343 342 340 340 340 333 331 329 327 325 322 318 315 305 303 293 237 202 214 266 277 261 255 250 252 256 205 213 255 216 220 206 232 242 214 238 227 243 209 200
5 5 1 359 353 355 346 343 342 341 337 329 328 328 328 327 325 322 319 307 303 304 114 148 208 245 243 290 257 305 256 230 233 185 180 203 208 211 213 205 216 219 225 236 243 226 223
5 2 1 359 354 350 346 344 342 339 334 329 329 328 327 325 323 324 326 328 316 190 316 263 252 255 282 271 282 249 317 245 216 202 189 186 202 218 213 216 239 251 247 247 251 237 239
4 2 359 356 352 349 345 343 341 337 330 326 325 324 325 324 321 328 331 9 68 343 297 259 251 251 256 269 294 272 239 218 194 207 193 181 224 215 217 214 220 228 242 242 251 256 270
2 1 -0 354 349 347 346 342 339 335 330 325 322 323 324 318 319 352 313 280 338 332 259 292 242 252 250 226 243 271 223 202 219 211 196 198 224 204 211 207 213 223 232 238 245 267 269
358 352 358 354 348 348 344 339 339 336 332 331 328 325 322 327 299 327 297 217 327 297 287 271 229 240 210 223 240 240 224 212 219 220 206 227 211 195 206 216 207 229 224 251 251 256 262
356 356 351 349 348 346 340 337 335 334 331 329 326 322 323 330 293 271 342 323 325 191 291 99 137 133 328 230 306 316 209 217 231 210 195 211 195 190 201 204 207 236 227 224 237 247 273
356 353 350 346 347 344 337 335 333 333 329 326 324 324 327 303 230 260 299 322 247 213 244 286 61 347 337 1 313 299 239 228 220 242 232 219 207 196 210 198 203 196 208 197 228 253 253
358 354 351 344 343 341 336 334 334 334 331 329 328 328 322 282 280 157 346 272 207 239 340 22 341 331 321 336 349 341 319 196 218 202 219 212 221 202 190 192 193 195 181 212 227 218 247
357 353 350 345 343 340 338 337 336 335 333 332 327 314 284 248 275 276 264 185 226 264 259 323 339 324 304 12 6 343 330 234 211 238 222 210 198 202 190 194 175 191 190 173 207 226 263
354 349 346 345 342 341 341 340 339 337 336 332 320 348 326 331 292 191 216 199 263 252 349 330 325 312 314 334 350 336 345 321 226 216 259 205 229 182 188 189 181 182 205 209 268 262 278
349 349 346 344 344 344 344 342 342 341 341 335 342 334 1 344 111 233 223 268 286 328 334 316 292 262 292 314 320 28 338 26 349 358 352 273 222 204 187 185 205 205 183 183 204 227 245
345 345 344 343 343 343 345 344 342 344 343 332 25 350 70 356 18 41 353 316 291 291 321 298 293 295 288 296 343 54 287 335 12 331 335 271 281 181 171 201 188 177 187 191 190 215 209
344 343 343 342 340 342 341 343 342 343 341 346 1 331 9 337 353 60 338 325 310 293 323 291 275 277 272 314 292 234 218 237 354 324 306 303 290 245 207 193 200 196 190 183 185 188 230
347 344 343 341 339 340 339 341 343 344 354 324 342 297 334 310 38 354 335 308 275 297 325 321 298 331 322 300 295 253 205 205 255 291 323 345 228 217 147 198 204 199 199 190 147 163 200
343 343 344 342 340 340 339 339 339 341 348 16 348 339 339 23 41 334 324 299 310 300 291 307 284 326 339 320 326 266 238 196 249 304 311 289 258 267 202 199 156 197 194 192 198 200 199
341 342 341 341 340 339 338 340 331 336 344 357 2 13 342 317 331 315 308 306 303 326 321 314 279 351 360 309 323 30 331 233 245 327 331 332 231 276 268 279 302 173 197 198 204 218 212
341 343 342 339 339 336 336 332 328 333 346 354 323 326 305 295 296 300 300 305 298 316 304 313 287 325 325 291 285 295 308 9 313 301 320 9 33 345 262 243 252 144 162 203 207 223 235
340 342 342 340 339 337 332 324 327 330 2 283 307 280 267 285 286 279 291 292 292 305 283 253 306 312 305 301 302 289 277 263 258 281 331 341 349 350 213 346 226 237 291 200 208 222 221
340 342 342 341 339 336 328 323 328 322 339 241 253 250 271 287 301 306 292 301 307 314 293 296 294 280 267 310 301 276 257 247 252 249 253 298 329 275 267 257 202 87 45 14 106 50 10
339 342 342 339 335 333 331 324 326 318 341 230 161 253 285 282 290 296 318 323 304 315 297 297 290 286 309 294 274 285 166 180 224 224 75 217 285 250 239 217 112 54 19 349 2 55 19
336 339 340 338 336 335 336 327 324 319 324 169 215 174 266 291 280 310 306 294 301 312 315 290 311 317 306 299 275 288 336 332 32 165 78 318 238 266 266 244 159 4 332 290 182 114 6
332 336 337 336 337 339 337 328 323 315 314 206 251 179 249 273 282 253 293 317 281 286 280 295 336 326 335 358 327 311 4 323 283 324 349 83 102 195 191 88 100 354 355 138 205 29 343
329 333 334 332 334 338 338 331 320 309 309 204 242 181 243 266 284 256 246 245 278 268 284 326 311 110 331 16 345 351 334 6 283 298 328 325 312 132 173 140 128 357 9 64 0 342 338
325 328 332 331 331 334 335 331 321 308 311 195 248 171 180 252 271 296 279 265 257 256 273 259 294 295 2 341 352 307 316 291 312 91 358 34 356 41 10 67 346 341 11 48 2 340 344